SIA412 AYPY-RPLL

Flight info

Callsign SIA412
Flight time N/A
Altitude 40000
Route STARF1 STARF H539 KIBAV B462 TAC W9 AKDAP AKDAP3R
Aircraft A359/H-SDE2E3GHIJ3J4J5LM1ORWXY/LB1D1

Departure

Time 2026-04-29 15:15
Airport Port Moresby Jacksons International Airport (AYPY)

Arrival

Time N/A
Airport Ninoy Aquino International Airport (RPLL)
Time Latitude Longitude Altitude Speed Heading
2026-04-29 14:56 -9.43814 147.21191 109 ft 0 kts 237°
2026-04-29 15:06 -9.43812 147.21193 111 ft 2 kts 242°
2026-04-29 15:06 -9.43807 147.21206 108 ft 2 kts 273°
2026-04-29 15:07 -9.43809 147.21219 109 ft 2 kts 303°
2026-04-29 15:07 -9.43818 147.21230 110 ft 2 kts 332°
2026-04-29 15:07 -9.43824 147.21233 109 ft 0 kts 349°
2026-04-29 15:09 -9.43818 147.21232 109 ft 4 kts 349°
2026-04-29 15:09 -9.43765 147.21230 109 ft 8 kts
2026-04-29 15:09 -9.43709 147.21257 108 ft 10 kts 32°
2026-04-29 15:09 -9.43645 147.21269 107 ft 8 kts 349°
2026-04-29 15:10 -9.43590 147.21242 106 ft 10 kts 331°
2026-04-29 15:10 -9.43512 147.21199 105 ft 15 kts 331°
2026-04-29 15:10 -9.43422 147.21141 105 ft 16 kts 326°
2026-04-29 15:10 -9.43321 147.21088 106 ft 13 kts 353°
2026-04-29 15:11 -9.43270 147.21125 106 ft 9 kts 47°
2026-04-29 15:11 -9.43225 147.21179 104 ft 10 kts 58°
2026-04-29 15:11 -9.43185 147.21245 106 ft 12 kts 58°
2026-04-29 15:11 -9.43140 147.21322 105 ft 13 kts 59°
2026-04-29 15:12 -9.43109 147.21397 108 ft 7 kts 99°
2026-04-29 15:12 -9.43124 147.21415 107 ft 2 kts 149°
2026-04-29 15:12 -9.43125 147.21416 107 ft 0 kts 149°
2026-04-29 15:14 -9.43133 147.21421 107 ft 13 kts 149°
2026-04-29 15:14 -9.43503 147.21646 108 ft 110 kts 148°
2026-04-29 15:14 -9.44392 147.22203 312 ft 170 kts 147°
2026-04-29 15:15 -9.45404 147.22835 1315 ft 168 kts 148°
2026-04-29 15:15 -9.46395 147.23446 1726 ft 175 kts 149°
2026-04-29 15:15 -9.47620 147.23807 1857 ft 197 kts 183°
2026-04-29 15:15 -9.48898 147.23207 2015 ft 218 kts 227°
2026-04-29 15:16 -9.49627 147.21793 2246 ft 238 kts 252°
2026-04-29 15:16 -9.50122 147.20124 2526 ft 256 kts 253°
2026-04-29 15:16 -9.50658 147.18375 3055 ft 263 kts 252°
2026-04-29 15:16 -9.51241 147.16612 3663 ft 266 kts 251°
2026-04-29 15:17 -9.51857 147.14833 4234 ft 269 kts 250°
2026-04-29 15:17 -9.52492 147.13039 4737 ft 272 kts 250°
2026-04-29 15:17 -9.53139 147.11231 4978 ft 276 kts 249°
2026-04-29 15:17 -9.53798 147.09398 5356 ft 285 kts 248°
2026-04-29 15:18 -9.54255 147.07438 5949 ft 287 kts 262°
2026-04-29 15:18 -9.54293 147.05411 6502 ft 291 kts 276°
2026-04-29 15:18 -9.53668 147.03461 7030 ft 294 kts 301°
2026-04-29 15:18 -9.52292 147.01955 7594 ft 291 kts 322°
2026-04-29 15:19 -9.50692 147.00711 8215 ft 289 kts 324°
2026-04-29 15:19 -9.49069 146.99504 8808 ft 290 kts 324°
2026-04-29 15:19 -9.47433 146.98292 9365 ft 292 kts 324°
2026-04-29 15:19 -9.45786 146.97073 9915 ft 294 kts 324°
2026-04-29 15:20 -9.44138 146.95852 10253 ft 303 kts 325°
2026-04-29 15:20 -9.42396 146.94563 10472 ft 317 kts 324°
2026-04-29 15:20 -9.40580 146.93217 10663 ft 330 kts 324°
2026-04-29 15:20 -9.38694 146.91819 10844 ft 342 kts 324°
2026-04-29 15:21 -9.36740 146.90371 11023 ft 353 kts 324°
2026-04-29 15:21 -9.34729 146.88881 11205 ft 364 kts 324°
2026-04-29 15:21 -9.32666 146.87353 11465 ft 370 kts 324°
2026-04-29 15:21 -9.30580 146.85807 11815 ft 373 kts 324°
2026-04-29 15:22 -9.28507 146.84271 12210 ft 375 kts 324°
2026-04-29 15:22 -9.26401 146.82711 12670 ft 374 kts 325°
2026-04-29 15:22 -9.24303 146.81157 13091 ft 375 kts 324°
2026-04-29 15:22 -9.22187 146.79591 13441 ft 378 kts 324°
2026-04-29 15:23 -9.20059 146.78016 13787 ft 380 kts 324°
2026-04-29 15:23 -9.17925 146.76436 14126 ft 381 kts 325°
2026-04-29 15:23 -9.15788 146.74854 14509 ft 381 kts 325°
2026-04-29 15:23 -9.13669 146.73227 14776 ft 384 kts 321°
2026-04-29 15:24 -9.11799 146.71278 15034 ft 389 kts 310°
2026-04-29 15:24 -9.10157 146.69099 15419 ft 390 kts 306°
2026-04-29 15:24 -9.08648 146.66868 15807 ft 390 kts 305°
2026-04-29 15:24 -9.07161 146.64565 16143 ft 392 kts 304°
2026-04-29 15:25 -9.05674 146.62241 16367 ft 396 kts 304°
2026-04-29 15:25 -9.04169 146.59912 16781 ft 394 kts 305°
2026-04-29 15:25 -9.02651 146.57591 17100 ft 397 kts 305°
2026-04-29 15:25 -9.01108 146.55258 17368 ft 399 kts 305°
2026-04-29 15:26 -8.99558 146.52932 17780 ft 399 kts 306°
2026-04-29 15:26 -8.97996 146.50597 17994 ft 403 kts 306°
2026-04-29 15:26 -8.96416 146.48240 18246 ft 406 kts 306°
2026-04-29 15:26 -8.94834 146.45882 18598 ft 405 kts 306°
2026-04-29 15:27 -8.93270 146.43549 18806 ft 408 kts 305°
2026-04-29 15:27 -8.91671 146.41162 18998 ft 412 kts 305°
2026-04-29 15:27 -8.90057 146.38751 19219 ft 415 kts 305°
2026-04-29 15:27 -8.88437 146.36333 19491 ft 416 kts 305°
2026-04-29 15:28 -8.86824 146.33924 19816 ft 415 kts 305°
2026-04-29 15:28 -8.85752 146.32323 20001 ft 415 kts 305°
2026-04-29 15:28 -8.83569 146.29065 20223 ft 421 kts 305°
2026-04-29 15:28 -8.81926 146.26614 20443 ft 423 kts 305°
2026-04-29 15:29 -8.80268 146.24141 20657 ft 425 kts 305°
2026-04-29 15:29 -8.76955 146.19201 21109 ft 429 kts 304°
2026-04-29 15:30 -8.73591 146.14187 21535 ft 434 kts 304°
2026-04-29 15:30 -8.71895 146.11659 21797 ft 434 kts 304°
2026-04-29 15:30 -8.70193 146.09125 22023 ft 436 kts 304°
2026-04-29 15:30 -8.68472 146.06593 22211 ft 439 kts 305°
2026-04-29 15:31 -8.66731 146.04058 22431 ft 440 kts 305°
2026-04-29 15:31 -8.64978 146.01515 22648 ft 442 kts 305°
2026-04-29 15:31 -8.63219 145.98966 22860 ft 443 kts 305°
2026-04-29 15:31 -8.61478 145.96441 23101 ft 444 kts 305°
2026-04-29 15:32 -8.59710 145.93874 23282 ft 446 kts 305°
2026-04-29 15:32 -8.57934 145.91292 23483 ft 448 kts 305°
2026-04-29 15:32 -8.56154 145.88704 23645 ft 449 kts 305°
2026-04-29 15:32 -8.54370 145.86109 23826 ft 450 kts 305°
2026-04-29 15:33 -8.52580 145.83507 24008 ft 452 kts 305°
2026-04-29 15:33 -8.50784 145.80896 24170 ft 453 kts 305°
2026-04-29 15:33 -8.49008 145.78314 24338 ft 454 kts 305°
2026-04-29 15:33 -8.47204 145.75693 24532 ft 455 kts 305°
2026-04-29 15:34 -8.45399 145.73070 24707 ft 456 kts 305°
2026-04-29 15:34 -8.43583 145.70433 24845 ft 458 kts 305°
2026-04-29 15:34 -8.41762 145.67788 25019 ft 459 kts 305°
2026-04-29 15:34 -8.39940 145.65142 25182 ft 460 kts 305°
2026-04-29 15:35 -8.38110 145.62486 25357 ft 461 kts 305°
2026-04-29 15:35 -8.36277 145.59826 25532 ft 462 kts 305°
2026-04-29 15:35 -8.34440 145.57159 25709 ft 463 kts 305°
2026-04-29 15:35 -8.32596 145.54484 25874 ft 464 kts 305°
2026-04-29 15:36 -8.30775 145.51843 26043 ft 466 kts 305°
2026-04-29 15:36 -8.28921 145.49154 26199 ft 467 kts 305°
2026-04-29 15:36 -8.27061 145.46457 26380 ft 468 kts 305°
2026-04-29 15:36 -8.25203 145.43764 26558 ft 469 kts 305°
2026-04-29 15:37 -8.23331 145.41050 26738 ft 471 kts 305°
2026-04-29 15:37 -8.21459 145.38337 26916 ft 472 kts 305°
2026-04-29 15:37 -8.19582 145.35618 27103 ft 473 kts 305°
2026-04-29 15:37 -8.17698 145.32888 27281 ft 474 kts 305°
2026-04-29 15:38 -8.15836 145.30191 27459 ft 476 kts 305°
2026-04-29 15:38 -8.13941 145.27447 27646 ft 477 kts 305°
2026-04-29 15:38 -8.12042 145.24698 27821 ft 478 kts 305°
2026-04-29 15:38 -8.10139 145.21943 28016 ft 479 kts 305°
2026-04-29 15:39 -8.08228 145.19177 28193 ft 481 kts 305°
2026-04-29 15:39 -8.06314 145.16408 28404 ft 482 kts 305°
2026-04-29 15:39 -8.04394 145.13630 28576 ft 483 kts 305°
2026-04-29 15:39 -8.02465 145.10841 28766 ft 485 kts 305°
2026-04-29 15:40 -8.00534 145.08048 28943 ft 486 kts 305°
2026-04-29 15:40 -7.98626 145.05289 29120 ft 487 kts 305°
2026-04-29 15:40 -7.96683 145.02481 29299 ft 489 kts 305°
2026-04-29 15:40 -7.94734 144.99664 29488 ft 490 kts 305°
2026-04-29 15:41 -7.92779 144.96839 29632 ft 492 kts 304°
2026-04-29 15:41 -7.90817 144.94004 29816 ft 493 kts 305°
2026-04-29 15:41 -7.88851 144.91163 29987 ft 495 kts 305°
2026-04-29 15:41 -7.86876 144.88312 30152 ft 496 kts 305°
2026-04-29 15:42 -7.84903 144.85462 30317 ft 496 kts 305°
2026-04-29 15:42 -7.82950 144.82643 30515 ft 497 kts 304°
2026-04-29 15:42 -7.80970 144.79786 30695 ft 498 kts 304°
2026-04-29 15:42 -7.78988 144.76926 30867 ft 498 kts 305°
2026-04-29 15:43 -7.76997 144.74053 31043 ft 499 kts 304°
2026-04-29 15:43 -7.75008 144.71183 31243 ft 500 kts 304°
2026-04-29 15:43 -7.73017 144.68311 31426 ft 500 kts 305°
2026-04-29 15:43 -7.71021 144.65433 31583 ft 501 kts 305°
2026-04-29 15:44 -7.69019 144.62548 31743 ft 502 kts 305°
2026-04-29 15:44 -7.65028 144.56795 31979 ft 505 kts 305°
2026-04-29 15:44 -7.63012 144.53891 32144 ft 506 kts 305°
2026-04-29 15:45 -7.60995 144.50985 32280 ft 506 kts 305°
2026-04-29 15:45 -7.58973 144.48072 32405 ft 508 kts 305°
2026-04-29 15:45 -7.56946 144.45153 32553 ft 508 kts 305°
2026-04-29 15:45 -7.54922 144.42239 32793 ft 507 kts 305°
2026-04-29 15:46 -7.52902 144.39331 33034 ft 506 kts 305°
2026-04-29 15:46 -7.50888 144.36433 33280 ft 505 kts 305°
2026-04-29 15:46 -7.48875 144.33537 33508 ft 504 kts 305°
2026-04-29 15:46 -7.46896 144.30688 33750 ft 503 kts 305°
2026-04-29 15:47 -7.44890 144.27804 33992 ft 502 kts 305°
2026-04-29 15:47 -7.42887 144.24923 34207 ft 501 kts 305°
2026-04-29 15:47 -7.40866 144.22076 34420 ft 500 kts 307°
2026-04-29 15:47 -7.38776 144.19273 34659 ft 499 kts 308°
2026-04-29 15:48 -7.36666 144.16509 35007 ft 495 kts 308°
2026-04-29 15:48 -7.34565 144.13771 35287 ft 494 kts 309°
2026-04-29 15:48 -7.32468 144.11032 35547 ft 493 kts 308°
2026-04-29 15:48 -7.30388 144.08300 35801 ft 492 kts 308°
2026-04-29 15:49 -7.28342 144.05600 36058 ft 491 kts 308°
2026-04-29 15:49 -7.26277 144.02865 36316 ft 490 kts 308°
2026-04-29 15:49 -7.24221 144.00138 36582 ft 489 kts 308°
2026-04-29 15:49 -7.22169 143.97414 36849 ft 487 kts 308°
2026-04-29 15:50 -7.20122 143.94697 37126 ft 486 kts 308°
2026-04-29 15:50 -7.18080 143.91987 37377 ft 485 kts 308°
2026-04-29 15:50 -7.16042 143.89285 37647 ft 484 kts 308°
2026-04-29 15:50 -7.14008 143.86587 37922 ft 483 kts 308°
2026-04-29 15:51 -7.12008 143.83936 38181 ft 482 kts 308°
2026-04-29 15:51 -7.09980 143.81248 38453 ft 481 kts 308°
2026-04-29 15:51 -7.07961 143.78573 38707 ft 480 kts 308°
2026-04-29 15:51 -7.05942 143.75898 38893 ft 479 kts 308°
2026-04-29 15:52 -7.03929 143.73232 39075 ft 479 kts 309°
2026-04-29 15:52 -7.01912 143.70560 39212 ft 479 kts 309°
2026-04-29 15:52 -6.99897 143.67892 39381 ft 479 kts 309°
2026-04-29 15:52 -6.97882 143.65224 39591 ft 478 kts 309°
2026-04-29 15:53 -6.95900 143.62600 39773 ft 477 kts 309°
2026-04-29 15:53 -6.93867 143.59909 39958 ft 476 kts 309°
2026-04-29 15:53 -6.91890 143.57293 40117 ft 476 kts 309°
2026-04-29 15:53 -6.89886 143.54641 40294 ft 475 kts 309°
2026-04-29 15:54 -6.87892 143.52004 40450 ft 475 kts 309°
2026-04-29 15:54 -6.85890 143.49355 40606 ft 474 kts 309°
2026-04-29 15:54 -6.83894 143.46715 40771 ft 473 kts 309°
2026-04-29 15:54 -6.81906 143.44087 40932 ft 473 kts 309°
2026-04-29 15:55 -6.79912 143.41451 40985 ft 473 kts 309°
2026-04-29 15:55 -6.75960 143.36228 40976 ft 472 kts 309°
2026-04-29 15:56 -6.71983 143.30971 40974 ft 472 kts 309°
2026-04-29 15:56 -6.68000 143.25710 40986 ft 473 kts 309°
2026-04-29 15:57 -6.66453 143.23667 40983 ft 474 kts 309°
2026-04-29 15:58 -6.62459 143.18393 40975 ft 474 kts 309°
2026-04-29 15:58 -6.58469 143.13126 40988 ft 473 kts 309°
2026-04-29 15:59 -6.54477 143.07858 40994 ft 473 kts 309°